IW4DZV-13 Weather Reports


time (UTC)temp
F
wind
direction
speed
knots
gust
knots
rain 1hr
in
rain 24hr
in
rain mn
in
humidity
%
barometer
mb
20260503053035 53 360 0.0 0.0 0.00 0.00 0.00 70 1018.7
20260503051518 51 360 0.0 0.0 0.00 0.00 0.00 74 1018.7
20260503050019 50 360 0.0 0.0 0.00 0.00 0.00 76 1018.7
20260503044516 50 360 0.0 0.0 0.00 0.00 0.00 76 1018.6
20260503043022 50 360 0.0 0.0 0.00 0.00 0.00 76 1018.7
20260503041512 49 360 0.0 0.0 0.00 0.00 0.00 76 1018.6
20260503040017 49 360 0.0 0.0 0.00 0.00 0.00 76 1018.6
20260503034509 49 360 0.0 0.0 0.00 0.00 0.00 75 1018.6
20260503033008 50 360 0.0 0.0 0.00 0.00 0.00 74 1018.5
20260503031506 50 360 0.0 0.0 0.00 0.00 0.00 74 1018.5
20260503030004 51 360 0.0 0.0 0.00 0.00 0.00 73 1018.4
20260503024502 51 360 0.0 0.0 0.00 0.00 0.00 71 1018.6
20260503023110 52 360 0.0 0.0 0.00 0.00 0.00 70 1018.6
20260503021558 52 360 0.0 0.0 0.00 0.00 0.00 69 1018.8
20260503020058 52 360 0.0 0.0 0.00 0.00 0.00 69 1018.8
20260503014600 52 360 0.0 0.0 0.00 0.00 0.00 69 1018.8
20260503013057 52 360 0.0 0.0 0.00 0.00 0.00 69 1018.9
20260503011555 52 360 0.0 0.0 0.00 0.00 0.00 68 1018.9
20260503010054 52 360 0.0 0.0 0.00 0.00 0.00 68 1019.0
20260503004553 52 360 0.0 0.0 0.00 0.00 0.00 67 1019.1
20260503003052 53 360 0.0 0.0 0.00 0.00 0.00 67 1019.1
20260503001549 53 360 0.0 0.0 0.00 0.00 0.00 66 1019.2
20260503000049 54 360 0.0 0.0 0.00 0.00 0.00 64 1019.3
20260502234552 54 360 0.0 0.0 0.00 0.00 0.00 64 1019.3
20260502233042 55 360 0.0 0.0 0.00 0.00 0.00 62 1019.4
20260502231540 55 360 0.0 0.0 0.00 0.00 0.00 61 1019.6
20260502230036 56 360 0.0 0.0 0.00 0.00 0.00 59 1019.7
20260502224533 56 360 0.0 0.0 0.00 0.00 0.00 60 1019.7
20260502223030 58 360 0.0 0.0 0.00 0.00 0.00 59 1019.8
20260502221525 59 360 0.0 0.0 0.00 0.00 0.00 57 1019.9
20260502220023 59 360 0.0 0.0 0.00 0.00 0.00 56 1019.9
20260502214534 60 360 0.0 0.0 0.00 0.00 0.00 55 1020.0
20260502213022 60 360 0.0 0.0 0.00 0.00 0.00 55 1020.0
20260502211528 60 360 0.0 0.0 0.00 0.00 0.00 55 1020.0
20260502210026 59 360 0.0 0.0 0.00 0.00 0.00 56 1020.1
20260502204521 59 360 0.0 0.0 0.00 0.00 0.00 58 1020.2
20260502203021 59 360 0.0 0.0 0.00 0.00 0.00 58 1020.2
20260502201520 59 360 0.0 0.0 0.00 0.00 0.00 58 1020.3
20260502200020 60 360 0.0 0.0 0.00 0.00 0.00 57 1020.3
20260502194519 60 360 0.0 0.0 0.00 0.00 0.00 56 1020.2
20260502193018 61 360 0.0 0.0 0.00 0.00 0.00 54 1020.2
20260502191521 62 360 0.0 0.0 0.00 0.00 0.00 53 1020.2
20260502190018 63 360 0.0 0.0 0.00 0.00 0.00 51 1020.2
20260502184517 65 360 0.0 0.0 0.00 0.00 0.00 48 1020.0
20260502183018 66 360 0.0 0.0 0.00 0.00 0.00 46 1019.9
20260502181516 67 360 0.0 0.0 0.00 0.00 0.00 41 1019.8
20260502163013 71 360 0.9 0.0 0.00 0.00 0.00 36 1020.2
20260502161508 72 360 0.9 0.0 0.00 0.00 0.00 36 1020.3
20260502151504 72 360 0.9 0.0 0.00 0.00 0.00 33 1020.7
20260502123050 74 360 0.9 0.0 0.00 0.00 0.00 33 1022.9
20260502121551 73 360 0.9 0.0 0.00 0.00 0.00 34 1022.9
20260502114546 73 360 0.9 0.0 0.00 0.00 0.00 32 1023.2
20260502113042 73 360 0.9 0.0 0.00 0.00 0.00 35 1023.4
20260502111550 73 360 0.9 0.0 0.00 0.00 0.00 32 1023.6
20260502110040 73 360 0.0 0.0 0.00 0.00 0.00 33 1023.8
20260502104537 73 360 0.9 0.0 0.00 0.00 0.00 34 1024.2
20260502103043 73 360 0.9 0.0 0.00 0.00 0.00 36 1024.3
20260502101532 73 360 0.9 0.0 0.00 0.00 0.00 31 1024.5
20260502091519 71 360 0.0 0.0 0.00 0.00 0.00 38 1025.0
20260502070046 61 360 0.0 0.0 0.00 0.00 0.00 51 1025.7
20260502064542 60 360 0.0 0.0 0.00 0.00 0.00 55 1025.6
20260502063045 59 360 0.0 0.0 0.00 0.00 0.00 55 1025.7
20260502061537 58 360 0.0 0.0 0.00 0.00 0.00 55 1025.6
20260502060030 57 360 0.0 0.0 0.00 0.00 0.00 56 1025.6
20260502054533 55 360 0.0 0.0 0.00 0.00 0.00 59 1025.6